This is the latest recevied weather packets stored in our database for station/object WB9TLH-11. If no packets are shown the sender has not sent any weather packets the latest 10 day(s).
| Time | Temp. | Humidity | Pressure | Rain* | Wind** | Luminosity | Snow |
|---|---|---|---|---|---|---|---|
| 1777411870 | 19.44° C | 67% | 1013.2 hPa | 0 mm | - | - | - |
| 1777411570 | 20° C | 67% | 1013.3 hPa | 0 mm | - | - | - |
| 1777411270 | 20° C | 68% | 1013.3 hPa | 0 mm | - | - | - |
| 1777410970 | 20° C | 67% | 1013.2 hPa | 0 mm | - | - | - |
| 1777410670 | 20° C | 66% | 1013.4 hPa | 0 mm | - | - | - |
| 1777410370 | 20° C | 66% | 1013.5 hPa | 0 mm | - | - | - |
| 1777410070 | 20° C | 68% | 1013.5 hPa | 0 mm | - | - | - |
| 1777409770 | 20° C | 67% | 1013.5 hPa | 0 mm | - | - | - |
| 1777409470 | 20° C | 66% | 1013.8 hPa | 0 mm | - | - | - |
| 1777409170 | 20° C | 67% | 1013.9 hPa | 0 mm | - | - | - |
| 1777408870 | 20.56° C | 68% | 1013.9 hPa | 0 mm | - | - | - |
| 1777408570 | 20.56° C | 65% | 1014 hPa | 0 mm | - | - | - |
| 1777408270 | 20.56° C | 65% | 1014 hPa | 0 mm | - | - | - |
| 1777407970 | 20.56° C | 66% | 1014 hPa | 0 mm | - | - | - |
| 1777407670 | 20.56° C | 63% | 1014 hPa | 0 mm | - | - | - |
| 1777407370 | 20.56° C | 65% | 1014.3 hPa | 0 mm | - | - | - |
| 1777407070 | 20.56° C | 64% | 1014.6 hPa | 0 mm | - | - | - |
| 1777406770 | 20.56° C | 66% | 1014.5 hPa | 0 mm | - | - | - |
| 1777406470 | 21.11° C | 65% | 1014.7 hPa | 0 mm | - | - | - |
| 1777406170 | 20.56° C | 66% | 1014.7 hPa | 0 mm | - | - | - |
| 1777405870 | 20.56° C | 64% | 1015.1 hPa | 0 mm | - | - | - |
| 1777405570 | 20.56° C | 67% | 1015.2 hPa | 0 mm | - | - | - |
| 1777405270 | 20° C | 67% | 1015.1 hPa | 0 mm | - | - | - |
| 1777404970 | 20° C | 66% | 1015.3 hPa | 0 mm | - | - | - |
| 1777404670 | 20° C | 69% | 1015.4 hPa | 0 mm | - | - | - |
* Rain latest hour (hover to see other rain measurements)
** Current wind speed in m/s (hover to see current wind gust speed)